Location: Petruro
(41.0333°N, 14.7833°E)
Time: 21:11:17
(UTC+00:00)

CZ-4C R/B - Pass Details

Date: 19 October 2021
Orbit: 463 x 631 km, 98.0° (Epoch: 27 November)

Event Time Altitude Azimuth Distance (km) Brightness Sun altitude
Rises 16:43:13 0° 349° (N) 2,827 7.0 -6.2°
Reaches altitude 10° 16:46:51 10° 316° (NW) 1,957 6.7 -6.9°
Maximum altitude 16:48:10 11° 297° (WNW) 1,880 7.0 -7.1°
Drops below altitude 10° 16:49:31 10° 279° (W) 1,976 7.6 -7.4°
Sets 16:53:14 0° 246° (WSW) 2,900 8.7 -8.1°
